Wind_Speed
12 12 12 13 14 14 14 13 14 16 15 15 15 16 16 17 18 19 20 21 22 23 24 24 24 25 25 25 26 26 25 26 26 26 26 26 27 27 27 26 25 26 26 26
12 13 13 13 12 12 12 12 13 15 14 14 14 14 14 15 16 17 17 18 20 21 23 23 24 24 24 25 26 26 26 25 25 25 26 26 26 27 26 26 25 25 25 25
13 13 12 11 10 10 11 11 12 14 13 13 14 14 15 15 16 16 17 18 19 20 21 22 23 24 24 25 25 26 25 25 25 25 25 25 26 26 26 26 26 25 25 25
14 13 12 11 10 10 11 12 12 12 11 12 12 11 15 15 16 16 17 18 19 20 21 22 23 23 24 24 25 25 25 25 25 25 24 25 25 25 26 26 26 26 26 26
13 12 12 11 10 10 12 11 11 11 11 11 12 11 15 15 16 16 17 18 18 20 20 21 22 23 24 24 25 25 25 25 25 25 25 25 25 25 25 25 25 25 26 26
13 12 12 12 10 10 10 10 10 9 9 9 12 11 13 14 15 15 16 17 18 19 20 21 22 23 23 23 24 25 25 25 25 25 25 25 25 25 25 26 25 25 25 26
12 12 13 12 11 10 9 8 7 7 8 10 12 11 13 14 14 15 16 16 17 18 19 20 21 22 22 22 22 24 24 24 24 24 25 25 25 25 26 26 26 26 26 26
12 12 13 13 12 11 9 9 8 8 9 10 12 12 13 13 14 15 16 17 18 18 19 19 20 21 22 23 23 23 23 23 23 24 25 25 26 26 26 26 26 26 26 27
13 14 13 13 12 11 11 10 10 9 9 9 11 13 14 14 15 16 17 18 19 19 19 20 20 21 21 22 22 23 22 23 24 24 25 26 26 27 26 26 25 26 27 28
13 13 12 12 12 12 11 11 11 9 9 9 11 13 15 16 16 18 18 19 19 19 20 21 21 21 21 21 22 22 22 23 24 24 24 25 25 25 25 26 27 26 27 28
13 12 12 12 12 11 11 11 11 11 11 11 11 13 16 16 17 18 18 19 19 19 20 21 21 22 22 22 22 22 22 22 23 23 23 23 23 24 24 25 26 26 26 27
12 13 13 13 13 12 12 12 11 11 12 12 12 15 16 17 17 17 17 18 19 20 21 21 22 22 23 22 22 21 22 22 22 22 22 23 23 23 24 24 25 25 26 26
12 13 12 11 12 12 12 12 12 12 13 13 13 16 18 18 18 18 19 19 19 20 21 21 22 22 23 22 22 21 22 22 21 21 22 22 22 23 23 24 24 25 25 26
12 12 12 13 12 12 12 12 12 13 12 13 14 17 18 19 19 19 20 20 20 21 21 21 21 21 22 22 22 22 22 22 21 21 21 21 21 22 22 22 22 23 23 23
11 11 11 12 13 12 12 12 12 13 13 14 15 17 18 19 20 20 20 20 21 21 22 21 21 22 22 22 22 21 21 21 20 21 20 20 20 19 19 19 19 19 20 21
11 11 10 10 11 11 11 12 13 13 13 14 16 17 18 19 20 20 19 20 21 22 22 21 21 21 20 20 20 20 19 18 18 18 18 18 18 18 18 18 18 18 19 19
10 11 10 10 10 10 11 12 12 13 13 14 16 17 18 19 19 19 20 20 21 21 21 21 20 20 19 19 18 17 16 15 15 15 15 15 16 16 16 16 16 16 17 17
10 10 9 9 9 10 11 10 11 11 12 14 15 16 17 18 19 19 19 20 20 20 20 19 19 18 18 17 16 15 14 13 13 13 12 13 13 13 13 13 13 13 13 13
9 9 9 8 9 10 10 10 10 11 12 13 14 15 17 18 18 19 19 19 19 19 17 17 16 16 15 15 14 13 12 12 11 11 10 10 9 9 9 10 10 10 10 10
7 7 7 8 9 11 11 10 10 11 12 13 14 15 16 17 18 19 19 18 17 16 15 15 14 13 12 11 10 10 9 9 8 8 8 6 6 7 7 7 7 7 8 8
5 5 6 7 8 10 10 10 10 11 12 12 13 14 16 17 18 18 17 16 15 14 14 12 11 10 9 8 7 7 6 5 5 4 3 3 3 3 4 4 4 5 6 7
3 4 5 6 8 9 9 9 10 10 10 11 13 14 15 16 16 16 15 13 13 12 11 10 8 7 6 5 4 4 3 1 1 1 1 1 1 2 2 2 2 3 3 3
2 3 4 5 6 7 8 8 9 9 10 11 13 14 15 15 15 14 13 12 11 10 9 7 5 4 3 2 2 2 2 2 2 2 2 2 1 1 1 1 1 1 1 1
2 3 4 5 5 7 7 8 8 8 9 10 12 13 13 13 13 13 12 10 9 7 6 5 4 3 3 3 2 3 3 3 3 4 4 4 4 3 3 4 4 4 4 4
3 4 4 5 5 6 6 6 6 7 8 9 10 11 11 12 12 11 10 8 7 6 5 5 4 4 4 4 5 5 5 6 6 5 6 6 6 7 7 7 7 7 7 6
3 4 5 5 5 5 5 4 4 6 7 8 8 9 10 11 11 10 9 8 7 6 6 6 6 6 6 7 7 7 7 7 7 7 8 8 9 9 9 9 9 9 9 9
Wind_Direction
227 223 220 221 220 219 218 221 229 237 239 241 244 249 250 250 251 255 259 262 263 265 267 268 269 269 270 271 271 271 271 270 269 269 268 268 267 266 265 267 267 265 265 263
220 218 220 221 220 219 221 223 231 239 241 243 246 250 253 254 257 259 261 263 265 266 267 268 269 270 270 270 270 270 270 269 269 268 268 268 267 266 264 264 265 267 265 264
210 218 218 217 217 218 220 220 231 241 245 248 251 255 255 257 258 261 263 266 268 270 270 270 271 272 270 270 269 270 270 269 268 268 268 268 266 266 264 263 264 265 265 264
211 213 214 215 216 215 221 226 233 241 246 252 253 255 263 259 260 265 268 269 269 269 271 271 272 272 273 271 271 271 270 269 268 267 267 267 264 264 264 262 262 263 263 261
213 212 214 215 216 215 222 231 237 242 243 250 258 251 263 264 265 268 270 271 271 271 272 273 273 274 274 273 271 270 268 268 267 267 267 266 264 264 263 263 261 261 261 260
214 214 217 216 216 219 225 230 236 244 249 252 254 257 263 267 269 271 273 275 274 275 274 275 276 276 275 275 272 268 268 268 268 266 265 265 264 263 262 262 261 260 260 259
214 216 217 218 219 221 224 225 237 245 248 254 258 258 261 267 270 271 276 278 279 279 279 279 278 276 276 276 273 270 269 268 267 266 265 265 264 263 263 262 262 261 260 258
210 218 222 222 220 226 229 222 222 236 244 256 264 264 264 270 273 275 279 282 282 282 282 282 282 279 278 277 276 273 272 270 268 267 266 266 265 265 265 264 262 262 261 258
206 219 227 226 226 226 233 227 225 236 248 257 263 267 271 271 275 280 284 285 284 284 285 286 286 286 284 279 276 275 274 272 271 270 268 267 266 265 264 264 263 263 262 261
210 219 226 226 227 230 229 234 240 246 256 261 271 277 276 276 279 284 286 286 285 285 287 289 289 288 287 285 282 280 279 276 274 274 272 271 267 265 265 262 262 263 262 260
214 221 226 229 227 235 239 242 248 253 257 264 274 274 276 280 285 288 289 287 285 286 287 290 290 291 289 287 285 284 282 279 278 277 275 272 268 266 264 260 260 261 262 260
215 219 225 231 234 236 240 244 251 258 267 272 278 281 282 286 289 293 293 290 287 288 289 291 291 292 292 291 290 287 284 282 281 280 278 275 271 267 263 261 259 260 261 261
219 220 224 234 242 243 246 250 258 265 269 274 279 283 288 290 292 293 294 292 289 290 291 292 291 292 293 292 291 289 286 285 283 281 279 276 272 268 265 264 263 263 263 264
223 222 222 229 238 245 252 259 265 271 274 276 280 283 287 290 293 294 294 293 293 293 295 294 294 294 293 292 291 288 286 284 282 280 280 278 274 269 266 265 265 265 264 264
222 224 227 231 240 247 256 262 267 272 273 276 281 285 288 291 294 296 295 294 294 295 296 296 295 294 293 292 291 289 286 284 283 281 279 277 274 271 267 266 266 264 262 260
224 225 232 239 246 252 260 265 269 275 279 284 286 288 292 295 297 297 297 297 296 297 297 298 297 297 295 292 292 291 289 287 285 281 278 276 273 271 268 268 266 264 263 262
226 226 232 240 246 254 262 268 273 276 281 286 288 291 296 298 300 302 302 300 300 301 300 300 300 299 297 295 295 292 289 286 284 281 278 274 272 273 269 264 263 262 263 265
227 226 229 238 245 253 262 270 272 277 283 289 292 296 301 301 304 305 304 304 304 304 302 300 299 298 298 297 296 294 289 284 283 282 281 278 277 274 268 264 264 264 265 266
221 222 229 237 247 255 262 269 275 281 286 291 297 302 305 306 307 308 308 307 307 306 305 304 302 300 299 299 298 293 287 283 282 282 281 277 276 274 269 264 263 265 268 269
220 225 231 234 243 254 264 271 280 285 288 296 302 308 311 313 313 313 312 312 311 310 309 305 303 302 301 301 299 297 293 286 284 286 282 279 280 275 269 271 268 271 275 275
215 224 233 239 249 259 267 274 282 287 295 302 308 312 316 319 318 317 317 316 315 315 314 311 308 306 305 307 307 305 302 292 287 287 282 285 288 288 281 281 279 281 282 282
202 228 240 248 254 264 272 281 284 289 296 304 311 317 322 324 324 323 322 320 320 320 319 316 315 316 315 317 318 321 331 340 343 347 329 326 313 311 307 297 284 286 288 288
202 227 240 249 264 275 279 284 288 293 300 308 314 319 324 328 330 328 325 325 327 326 329 330 333 341 345 345 347 2 29 58 69 59 46 42 26 12 20 19 44 49 96 84
224 240 253 263 279 285 286 287 288 296 306 314 319 325 331 335 335 336 336 337 342 346 351 359 8 19 31 32 44 63 74 89 87 80 75 71 72 70 73 77 87 91 95 90
263 260 271 280 288 292 295 293 292 301 311 319 327 334 339 342 345 347 350 352 1 13 21 34 47 55 62 71 83 89 93 96 93 92 89 86 87 85 87 88 92 92 93 91
290 286 279 279 282 289 300 301 302 314 322 327 333 340 345 350 356 360 6 14 24 33 42 54 62 70 80 86 91 95 97 97 98 95 95 94 93 90 88 88 90 92 93 91
Height
5809 5812 5814 5816 5818 5821 5823 5825 5826 5827 5828 5830 5831 5832 5833 5834 5835 5836 5837 5837 5838 5838 5838 5837 5837 5837 5837 5836 5836 5836 5836 5836 5835 5835 5835 5835 5835 5835 5835 5835 5835 5835 5836 5836
5807 5809 5811 5812 5815 5818 5820 5822 5824 5824 5826 5827 5828 5829 5830 5831 5831 5832 5832 5832 5832 5832 5832 5832 5831 5831 5830 5830 5830 5829 5829 5829 5829 5829 5828 5828 5828 5828 5828 5829 5829 5829 5830 5830
5804 5807 5808 5810 5813 5815 5817 5820 5821 5822 5823 5824 5826 5827 5827 5827 5828 5828 5828 5828 5827 5827 5827 5826 5825 5825 5824 5824 5824 5823 5822 5822 5822 5822 5822 5821 5821 5821 5822 5822 5823 5823 5823 5824
5801 5803 5806 5808 5811 5813 5815 5816 5818 5819 5821 5822 5824 5826 5824 5824 5824 5824 5824 5823 5822 5822 5821 5820 5820 5819 5818 5817 5817 5817 5816 5816 5816 5815 5815 5815 5815 5815 5815 5815 5816 5816 5817 5817
5799 5801 5804 5806 5809 5810 5812 5814 5815 5817 5819 5820 5821 5823 5823 5820 5820 5820 5819 5818 5817 5817 5816 5815 5814 5813 5812 5811 5810 5810 5809 5809 5809 5809 5808 5808 5808 5808 5808 5808 5809 5809 5810 5810
5797 5800 5802 5804 5806 5808 5809 5812 5813 5814 5817 5819 5818 5819 5820 5817 5816 5815 5815 5814 5813 5812 5810 5809 5808 5807 5806 5805 5804 5803 5803 5802 5802 5802 5801 5801 5802 5802 5802 5802 5802 5802 5803 5803
5796 5798 5799 5802 5804 5806 5808 5811 5813 5815 5816 5817 5815 5815 5815 5813 5811 5811 5810 5809 5808 5806 5805 5804 5802 5801 5800 5798 5797 5797 5796 5796 5795 5795 5795 5795 5795 5795 5795 5795 5795 5796 5796 5796
5795 5797 5797 5799 5802 5804 5806 5809 5813 5814 5815 5814 5811 5811 5810 5808 5807 5807 5806 5804 5803 5801 5800 5798 5797 5795 5794 5792 5791 5790 5790 5789 5789 5788 5788 5788 5788 5788 5788 5788 5788 5789 5789 5789
5793 5795 5795 5797 5799 5802 5803 5805 5808 5809 5810 5810 5809 5807 5806 5805 5804 5802 5801 5800 5798 5797 5795 5793 5791 5790 5787 5785 5784 5784 5783 5783 5782 5782 5781 5781 5781 5781 5781 5781 5781 5782 5782 5782
5789 5792 5793 5795 5797 5799 5801 5802 5803 5806 5806 5807 5807 5805 5804 5801 5800 5798 5796 5795 5793 5791 5790 5788 5786 5784 5782 5780 5779 5778 5777 5776 5776 5775 5775 5774 5774 5774 5774 5774 5775 5775 5775 5775
5787 5790 5792 5793 5795 5797 5798 5799 5800 5802 5802 5803 5803 5804 5798 5797 5795 5794 5791 5790 5788 5786 5785 5782 5780 5778 5776 5775 5773 5772 5771 5770 5769 5769 5768 5767 5767 5767 5767 5767 5768 5768 5768 5769
5784 5787 5790 5791 5792 5793 5794 5795 5797 5798 5798 5798 5798 5800 5794 5792 5790 5788 5786 5784 5782 5781 5779 5777 5775 5773 5770 5769 5767 5765 5764 5763 5762 5762 5761 5761 5760 5760 5760 5760 5761 5761 5761 5762
5782 5785 5787 5789 5791 5791 5791 5792 5793 5794 5794 5794 5794 5795 5789 5787 5785 5783 5781 5779 5777 5775 5773 5771 5769 5767 5765 5763 5761 5759 5758 5757 5756 5755 5754 5754 5753 5753 5753 5753 5754 5754 5754 5755
5780 5782 5785 5788 5788 5788 5789 5789 5789 5790 5790 5790 5790 5788 5785 5782 5780 5778 5776 5774 5772 5770 5767 5765 5763 5761 5759 5757 5755 5753 5752 5750 5749 5748 5748 5747 5747 5747 5747 5747 5747 5747 5748 5748
5777 5780 5781 5783 5784 5785 5785 5786 5786 5786 5786 5786 5784 5782 5780 5778 5775 5773 5771 5768 5766 5764 5762 5759 5757 5754 5753 5751 5749 5747 5745 5744 5743 5742 5741 5741 5740 5740 5741 5741 5741 5741 5742 5742
5775 5777 5779 5780 5781 5782 5782 5783 5782 5782 5781 5781 5779 5777 5775 5773 5770 5768 5766 5763 5760 5758 5756 5753 5751 5748 5746 5745 5743 5741 5739 5738 5737 5736 5736 5735 5735 5735 5735 5735 5735 5736 5736 5737
5772 5774 5776 5778 5779 5779 5780 5780 5779 5778 5777 5776 5775 5774 5770 5768 5766 5763 5760 5758 5755 5752 5750 5747 5745 5743 5741 5739 5737 5736 5734 5733 5732 5731 5731 5730 5730 5729 5729 5730 5730 5731 5731 5731
5770 5771 5773 5775 5777 5778 5779 5776 5776 5775 5773 5772 5770 5768 5766 5764 5761 5758 5755 5753 5750 5747 5744 5742 5740 5738 5736 5734 5732 5731 5730 5729 5728 5727 5726 5726 5725 5725 5725 5725 5726 5726 5726 5727
5767 5769 5771 5773 5774 5774 5774 5773 5772 5771 5770 5768 5766 5764 5762 5759 5756 5754 5751 5748 5745 5742 5739 5737 5735 5733 5731 5730 5728 5727 5726 5725 5724 5723 5723 5722 5722 5722 5722 5722 5722 5723 5723 5723
5766 5767 5769 5770 5771 5771 5771 5770 5768 5769 5766 5765 5763 5761 5758 5755 5753 5750 5746 5743 5740 5737 5735 5733 5731 5729 5728 5726 5725 5723 5722 5722 5721 5720 5720 5720 5720 5719 5719 5719 5720 5720 5720 5720
5765 5766 5767 5767 5768 5768 5767 5766 5766 5766 5764 5761 5759 5757 5755 5752 5749 5746 5742 5739 5736 5734 5732 5730 5728 5726 5725 5723 5722 5721 5720 5719 5719 5718 5718 5718 5718 5718 5718 5718 5718 5718 5718 5718
5763 5764 5765 5765 5765 5767 5764 5763 5763 5762 5760 5758 5756 5754 5751 5748 5745 5742 5738 5736 5733 5731 5729 5727 5725 5724 5723 5722 5721 5720 5719 5718 5718 5718 5718 5718 5718 5717 5717 5717 5717 5716 5716 5716
5762 5763 5762 5763 5764 5762 5761 5760 5759 5758 5757 5755 5754 5751 5748 5745 5742 5739 5736 5733 5731 5729 5727 5725 5724 5723 5722 5721 5721 5720 5719 5719 5718 5718 5718 5717 5717 5717 5717 5716 5716 5716 5716 5716
5761 5761 5761 5760 5760 5759 5758 5757 5756 5755 5754 5753 5751 5748 5746 5743 5740 5737 5734 5731 5729 5727 5726 5724 5723 5722 5722 5721 5720 5720 5719 5719 5719 5719 5718 5718 5718 5718 5717 5717 5717 5716 5716 5716
5760 5759 5759 5758 5758 5757 5756 5755 5754 5753 5752 5750 5748 5746 5744 5741 5738 5735 5732 5730 5728 5727 5726 5724 5723 5723 5722 5721 5721 5720 5720 5720 5720 5720 5720 5719 5719 5719 5719 5718 5718 5717 5717 5717
5758 5758 5757 5757 5756 5755 5755 5753 5752 5751 5750 5749 5747 5745 5743 5740 5737 5734 5732 5730 5729 5727 5726 5725 5724 5724 5723 5723 5722 5722 5722 5722 5722 5722 5721 5721 5721 5721 5721 5720 5720 5719 5719 5719